Location: Prostejov
(49.4670°N, 17.1170°E)
Time: 15:55:17
(UTC+02:00)

ISS - Visible Passes

Search period start: 17 October 2019 00:00
Search period end: 27 October 2019 00:00
Orbit: 411 x 421 km, 51.6° (Epoch: 17 October)

Date Brightness Start Highest point End Pass type
(mag) Time Alt. Az. Time Alt. Az. Time Alt. Az.
24 Oct -1.2 06:50:15 10° SSW 06:52:54 22° SE 06:55:33 10° E visible
25 Oct -0.8 06:02:35 10° S 06:04:30 14° SE 06:06:25 10° ESE visible
26 Oct -2.6 06:48:59 10° SW 06:52:12 44° SSE 06:55:26 10° ENE visible
